Theta_e
297 302 303 302 302 301 298 298 297 298 304 309 316 321 322 321 321 320 321 324 326 327 328 331 338 340 343 347 350 344 345 345 345 347 348 350 350 350 351 351 352 351 349 349
299 302 305 300 302 307 306 307 300 302 305 312 317 318 317 318 318 317 317 320 323 326 326 327 332 335 338 341 342 349 348 345 347 345 345 346 348 348 350 351 351 350 349 350
293 297 301 296 300 306 306 308 306 300 307 315 316 316 316 316 317 316 316 319 321 323 324 325 328 333 332 336 335 337 343 343 343 343 346 349 348 348 349 350 350 350 350 352
293 293 291 298 309 310 307 308 311 314 314 315 315 314 315 316 315 316 316 316 319 320 322 323 324 328 329 330 329 328 332 335 339 339 339 348 349 348 349 349 349 351 351 352
291 289 293 301 306 305 304 302 307 309 313 316 316 312 309 313 314 313 314 317 319 322 322 322 322 322 323 323 325 326 327 331 335 337 334 340 344 346 348 350 347 352 353 353
289 288 289 296 309 313 308 296 307 310 308 308 310 301 305 311 314 312 313 314 315 318 319 320 322 322 322 322 320 323 326 329 334 334 333 336 339 342 345 348 351 351 353 346
288 287 293 304 309 310 295 296 306 307 306 306 304 306 309 311 312 312 313 313 315 315 314 315 318 320 317 319 319 322 326 328 331 331 331 333 335 337 338 345 344 344 333 329
290 290 289 306 306 300 301 304 306 306 305 305 306 309 309 310 311 312 313 315 316 313 312 314 315 316 315 315 317 322 324 325 327 328 331 335 329 329 334 332 333 334 328 327
294 294 301 303 303 305 305 304 304 305 306 306 306 306 307 307 308 309 310 311 313 312 312 313 314 313 313 315 318 322 322 321 325 328 328 329 328 326 328 331 331 331 325 324
296 300 301 303 304 306 306 305 306 306 307 307 305 306 306 306 307 307 309 310 311 311 311 311 312 314 313 315 319 319 319 320 323 325 325 327 326 323 324 328 329 329 326 325
296 300 301 303 303 304 306 307 307 308 307 306 306 305 305 306 306 307 307 308 310 311 311 312 313 312 313 315 316 317 318 319 321 323 324 325 326 322 321 323 326 328 329 328
295 300 299 300 303 306 304 305 306 305 305 307 306 306 306 306 306 306 308 309 310 310 310 311 311 311 313 314 315 315 315 317 319 321 323 325 323 315 309 307 304 301 300 309
300 302 302 303 305 306 305 306 306 305 304 304 305 306 306 306 306 308 308 308 308 309 311 312 312 312 314 315 315 315 314 316 320 317 321 324 318 315 318 312 303 300 299 299
304 303 301 302 301 304 305 306 307 306 306 305 306 306 306 306 307 306 306 308 310 310 311 311 312 312 315 315 315 314 315 314 318 320 321 322 320 318 319 316 315 314 302 299
304 303 302 302 302 304 305 305 302 302 303 303 305 305 306 305 305 306 308 311 311 310 310 311 311 313 315 315 316 316 317 318 320 320 321 320 323 319 319 319 317 314 310 304
304 304 302 302 303 304 303 302 300 301 302 303 304 305 306 307 308 309 311 312 311 310 312 311 311 313 314 314 315 316 317 318 319 320 320 318 322 323 321 320 316 312 311 310
300 297 300 301 302 302 302 302 302 302 304 304 305 307 308 309 310 309 310 311 312 312 313 312 312 314 314 315 315 315 316 317 319 318 318 318 319 322 320 320 315 312 312 309
302 302 302 302 302 302 302 303 304 305 304 306 307 308 308 308 308 309 309 310 310 310 312 314 315 316 315 315 315 315 316 317 316 316 317 316 316 321 320 319 316 312 311 306
305 304 304 305 304 303 303 304 305 306 307 307 307 308 309 309 309 310 310 309 309 308 309 313 319 320 317 315 317 315 315 316 318 317 316 314 314 319 319 318 315 314 312 309
305 306 306 305 305 304 304 305 305 306 307 308 310 308 307 308 308 307 307 307 308 308 310 315 317 317 313 314 318 315 316 317 317 317 317 318 318 317 316 309 313 311 311 310
304 304 304 304 304 305 305 305 305 305 307 309 308 307 307 307 307 308 307 305 307 311 313 317 317 313 310 313 318 315 315 314 315 315 315 316 317 316 313 310 309 308 308 308
303 304 304 303 303 302 304 305 305 306 307 306 307 307 305 305 305 306 309 307 309 310 314 315 313 315 316 316 314 313 312 311 310 310 310 310 311 310 309 308 307 307 307 307
303 303 303 302 302 303 304 304 305 309 305 306 306 306 304 304 305 303 302 307 308 308 313 314 314 314 313 312 311 311 310 310 309 309 309 308 309 309 308 307 307 307 306 306
302 302 302 303 303 302 302 303 308 309 306 305 306 308 306 304 304 307 308 307 306 307 307 308 308 309 309 310 309 309 309 308 308 307 307 305 308 308 307 307 306 307 306 304
303 302 302 301 300 301 302 303 304 307 305 304 304 306 308 308 306 306 307 308 307 307 308 308 307 308 308 308 308 308 307 307 307 307 307 306 306 307 307 307 306 306 306 306
301 301 299 300 301 302 305 304 302 303 304 304 306 305 305 308 308 308 308 307 308 307 308 308 309 309 308 308 308 307 307 306 306 305 306 306 306 306 306 306 306 306 306 306
302 301 301 299 300 303 305 305 302 305 304 305 306 307 306 306 307 306 306 306 306 307 307 308 308 308 309 309 309 308 308 308 304 307 307 306 306 305 305 305 305 305 305 305
Wind_Speed
3 1 4 3 5 3 3 3 4 6 7 4 4 5 3 3 8 13 12 11 10 9 8 7 9 9 10 12 17 12 8 6 5 4 4 5 6 6 7 7 9 8 6 6
2 5 6 7 7 6 5 4 1 5 5 1 9 9 8 8 8 11 9 9 8 8 8 8 8 8 10 11 12 12 12 11 9 7 6 5 6 7 7 8 9 6 6 7
3 3 4 4 3 6 4 9 3 3 2 3 14 11 6 6 7 7 7 7 7 6 5 5 7 7 9 7 5 8 8 7 8 9 9 9 7 6 8 9 7 7 7 8
3 3 3 4 9 13 16 8 11 11 10 8 11 9 9 7 7 7 7 6 5 4 4 4 3 4 4 4 6 6 7 5 5 6 7 7 7 7 9 6 6 7 9 10
5 3 3 0 5 2 5 4 7 5 6 5 5 8 7 8 5 5 4 3 2 2 1 1 3 1 4 7 7 8 6 6 6 5 7 8 10 11 10 6 5 9 9 10
4 6 8 3 1 6 5 3 5 4 6 6 2 4 5 10 8 10 7 4 5 4 1 5 5 6 9 9 7 6 5 5 4 5 6 6 9 11 10 9 9 6 5 5
3 3 3 3 6 3 4 6 2 3 6 7 6 3 4 6 6 5 5 9 9 9 9 8 8 9 7 4 6 6 6 5 4 4 5 4 5 5 8 9 1 6 10 9
3 5 3 6 3 3 5 3 4 3 4 6 4 3 3 4 6 8 10 12 11 8 8 7 7 6 8 9 7 6 6 7 7 5 3 3 5 4 6 5 2 8 8 8
2 5 4 5 7 5 4 5 3 4 3 5 4 2 5 6 8 7 7 6 5 6 7 7 7 4 5 8 8 8 7 7 7 7 5 3 3 4 3 2 3 5 5 6
5 2 3 6 5 6 5 5 4 4 3 2 3 5 6 6 6 6 7 9 7 8 9 9 8 8 8 8 8 7 8 8 7 6 7 5 3 2 3 4 4 4 5 6
4 3 4 4 3 4 3 2 2 3 4 5 6 8 6 6 7 7 7 6 7 10 12 13 11 10 9 8 7 8 8 8 8 6 7 5 6 4 4 6 4 5 7 7
6 7 5 4 3 1 2 2 2 2 3 5 3 6 6 8 7 7 12 12 11 11 12 13 10 11 12 9 8 8 8 7 7 6 6 5 6 4 10 10 8 6 12 10
6 5 5 6 5 3 4 4 1 3 3 4 6 6 7 10 9 14 14 14 15 16 16 14 11 12 12 11 9 9 8 8 8 7 6 6 5 5 6 5 9 7 2 11
7 8 4 3 4 3 1 4 1 3 4 5 7 7 10 11 12 12 13 15 16 17 17 16 16 16 10 11 11 10 8 12 8 7 7 6 6 6 5 5 6 3 4 2
6 4 7 5 5 4 2 0 4 5 6 7 7 9 10 14 15 15 15 15 15 16 17 17 18 17 11 11 11 11 8 6 7 6 7 7 6 5 5 5 7 5 2 2
7 5 4 4 3 1 3 5 4 7 7 9 11 13 14 16 17 17 17 16 14 13 16 15 16 16 12 11 11 10 8 13 13 7 7 6 6 6 5 5 5 5 4 3
5 3 3 1 3 4 6 6 5 8 10 11 13 14 15 17 18 18 18 16 18 18 16 16 18 16 13 13 13 9 8 8 11 6 7 7 5 6 5 4 5 6 5 5
5 4 5 4 5 6 7 7 7 9 11 12 13 14 16 19 20 21 20 18 16 16 16 15 15 14 15 14 12 9 7 7 7 7 6 5 5 6 5 5 6 6 4 4
5 6 3 5 6 6 7 7 7 9 12 12 13 16 18 21 22 20 20 16 15 15 18 13 16 18 13 13 13 7 9 8 8 6 6 6 4 5 6 6 6 6 6 6
3 3 5 4 4 4 7 7 7 9 10 11 15 17 19 20 19 18 15 15 13 12 16 17 16 12 9 11 14 6 7 9 8 6 7 7 7 6 6 7 6 6 7 8
4 1 3 3 6 7 6 6 6 9 12 13 16 18 18 17 16 14 11 9 14 12 15 20 13 6 4 5 4 3 3 3 4 5 5 6 5 5 6 6 6 7 6 6
2 3 3 4 5 7 6 5 5 6 10 13 15 14 14 13 13 13 12 9 11 19 11 5 2 6 4 5 3 2 2 1 1 1 1 1 2 5 6 7 7 7 8 8
4 3 3 4 5 6 5 4 5 4 6 9 11 12 11 9 8 10 11 14 11 14 7 6 7 10 9 4 3 3 3 6 3 3 4 4 4 5 6 7 7 8 8 8
2 2 3 4 4 3 4 4 5 4 5 8 8 9 9 9 8 7 8 12 17 15 11 10 10 11 9 4 4 4 5 4 4 4 6 7 6 8 7 8 7 7 8 9
2 3 3 3 3 3 4 4 6 5 6 8 7 6 7 5 4 8 7 9 15 12 9 13 16 12 6 5 5 6 5 5 4 5 5 5 5 7 7 9 8 6 6 7
2 4 3 4 5 4 4 3 4 4 5 7 6 4 6 5 5 6 7 7 6 10 7 8 8 8 8 8 7 6 5 5 5 5 5 5 6 6 6 6 7 7 6 6
2 4 3 4 4 4 3 4 3 5 5 4 6 6 6 7 6 6 6 5 4 4 5 4 5 7 6 6 6 5 4 3 4 4 4 4 4 4 5 5 5 5 4 5
Wind_Direction
56 36 132 74 68 79 112 153 170 240 154 171 93 69 50 76 76 74 71 62 56 53 39 33 53 50 47 42 39 39 44 16 336 305 261 248 240 225 226 216 219 226 212 212
101 333 139 82 67 64 14 353 18 63 61 61 95 73 51 40 62 73 60 58 51 46 41 33 34 40 44 45 46 55 53 46 24 359 318 272 253 234 220 227 231 211 200 217
217 323 82 17 29 104 96 22 305 136 57 112 95 90 66 67 63 74 75 77 71 65 55 41 30 27 44 38 39 55 58 43 24 360 348 340 304 260 241 236 227 223 214 205
161 23 180 283 103 106 95 41 21 60 67 72 85 78 58 27 55 42 48 53 56 55 52 33 39 57 64 28 38 55 48 31 32 19 355 339 331 316 284 259 234 222 222 218
140 153 124 312 257 216 140 25 1 41 40 61 98 68 42 23 52 74 68 72 41 355 327 31 39 308 68 41 33 31 11 7 5 10 359 354 349 338 323 285 246 230 222 216
143 146 189 177 242 338 135 69 335 75 48 30 64 68 290 330 349 11 20 20 19 334 317 34 357 17 32 16 5 343 333 338 346 358 355 341 335 330 320 305 263 246 283 14
141 131 312 300 317 326 134 191 159 115 100 70 89 170 256 316 357 6 1 357 354 11 4 346 354 7 8 326 310 283 293 303 318 331 329 315 314 318 314 306 115 103 104 95
90 93 201 8 346 150 175 102 131 63 49 61 58 24 348 359 354 355 353 351 353 353 344 334 336 345 319 309 291 287 294 305 300 276 276 309 324 321 319 312 123 121 120 124
126 155 271 318 92 79 84 95 55 82 71 114 86 6 329 325 327 323 318 307 299 296 298 297 294 264 270 274 294 301 302 285 279 289 285 254 281 317 311 280 288 149 148 152
85 348 61 70 64 84 108 123 149 144 152 163 246 256 264 278 284 295 299 305 298 297 287 278 267 272 259 273 278 273 271 276 273 260 267 258 218 219 262 256 229 222 191 179
68 147 92 47 92 118 96 77 21 350 4 350 347 325 320 317 304 284 268 265 261 269 275 277 279 273 266 260 268 272 269 264 263 258 250 245 240 221 213 243 246 229 221 212
198 195 145 190 181 148 70 36 51 78 346 323 301 294 288 287 272 275 287 286 280 272 269 268 261 265 271 265 252 259 263 264 255 255 253 237 240 231 228 230 263 268 269 258
167 173 166 149 171 172 161 179 289 318 319 291 272 254 264 278 278 289 292 290 284 280 273 270 265 261 264 265 259 256 246 259 260 249 252 236 224 203 250 219 225 215 265 269
123 114 101 167 203 197 165 105 120 249 247 261 275 280 278 281 284 279 275 276 281 281 279 281 276 267 256 253 258 256 253 245 254 256 249 235 226 213 205 222 254 220 135 358
159 178 178 168 113 124 139 55 330 307 289 285 279 274 285 286 282 278 275 273 275 278 279 277 274 273 261 247 252 253 247 246 249 245 250 237 226 214 200 219 242 242 184 125
190 157 88 86 125 344 317 302 299 297 295 290 292 292 286 282 285 290 289 283 281 275 275 275 274 270 260 248 254 255 251 251 246 248 249 240 232 225 216 219 232 206 211 178
121 109 114 171 241 279 277 286 265 271 285 284 282 285 292 293 290 289 286 284 289 284 280 272 271 271 261 247 248 253 258 257 247 244 242 241 223 235 217 191 210 211 206 171
116 120 139 166 219 257 279 267 266 283 285 290 297 296 301 301 292 287 287 285 280 279 274 272 268 261 255 246 243 241 239 249 242 230 234 231 219 221 209 196 206 197 170 139
143 143 185 228 247 256 264 280 302 292 297 304 309 307 302 299 299 293 289 283 276 280 282 279 275 275 255 237 233 241 244 239 241 241 244 249 233 215 211 206 187 181 161 154
132 182 208 258 292 254 290 296 292 298 308 308 313 307 305 304 305 300 294 284 276 270 275 279 288 271 242 249 258 230 229 232 232 233 249 246 244 206 190 186 164 145 153 152
188 257 279 310 307 312 301 295 307 323 317 327 319 315 312 315 314 308 302 294 290 288 282 275 275 247 239 240 212 174 193 211 235 241 244 247 222 187 164 140 135 136 131 129
256 267 281 328 318 306 332 326 350 323 347 343 336 339 337 338 340 334 338 337 319 314 306 305 232 172 141 120 97 110 118 109 16 290 315 38 125 142 138 138 131 128 127 126
252 246 304 309 306 306 315 360 326 328 338 316 328 341 350 335 331 342 344 343 340 335 354 2 73 84 80 65 78 72 80 73 54 47 64 70 82 99 121 124 127 124 119 121
249 313 284 290 306 344 336 306 302 306 292 296 305 323 335 337 343 350 340 342 356 4 19 19 24 46 57 48 59 67 66 68 81 76 83 84 89 94 91 99 101 103 103 100
283 276 280 301 312 284 286 280 290 299 309 294 292 297 306 314 317 318 333 348 351 0 9 11 21 25 34 54 61 69 66 58 54 72 75 85 90 87 98 107 96 84 89 99
229 243 239 248 246 246 249 260 269 301 291 294 303 303 303 303 305 321 325 340 1 358 4 14 26 27 28 30 32 45 47 59 52 54 62 70 77 87 95 104 116 114 121 125
267 218 269 296 268 254 239 232 250 275 272 294 297 308 318 318 323 302 313 329 346 12 358 7 25 30 28 29 20 17 30 56 65 78 70 67 68 88 99 95 101 111 124 131